Regional Weather Roundup
Issued by NWS

Home | Current Version | Previous Version | Graphics & Text | Print | Product List | Glossary On
Versions: 1 2 3 4 5 6 7 8 9 10 11 12 13 14 15 16 17 18 19 20 21 22 23 24 25 26 27 28 29 30 31 32 33 34 35 36 37 38 39 40 41 42 43 44 45 46 47 48 49 50
802
ASUS45 KBOU 281007
RWRCO

WEATHER ROUNDUP FOR COLORADO
NATIONAL WEATHER SERVICE DENVER/BOULDER CO
400 AM MDT WED JUN 28 2017

NOTE: "FAIR" INDICATES FEW OR NO CLOUDS BELOW 12000 FEET WITH NO
SIGNIFICANT WEATHER AND/OR OBSTRUCTIONS TO VISIBILITY.

COZ001>005-013-030-031-281100-
...NORTHWEST COLORADO...

CITY           SKY/WX    TMP DP  RH WIND       PRES   REMARKS
CRAIG          FAIR      45  38  76 CALM      30.02S
HAYDEN         FAIR      52  36  54 E9        30.04S
MEEKER         FAIR      48  34  58 NE9       30.02S
RABBIT EARS PA FAIR      46  32  57 W10       30.28S
STEAMBOAT SPGS FAIR      47  37  69 CALM      30.06S
WALDEN         FAIR      39  32  75 CALM      30.15R
$$

COZ006>008-011-281100-
...WEST CENTRAL VALLEYS...

CITY           SKY/WX    TMP DP  RH WIND       PRES   REMARKS
GRAND JUNCTION FAIR      77  27  15 SE3       29.85R
MONTROSE       FAIR      60  23  24 SE9       29.97R
EAGLE          FAIR      54  29  38 CALM      30.05F
RIFLE          FAIR      63  30  28 SE10      29.93S
DELTA          FAIR      62  26  25 CALM      29.91S
NUCLA          FAIR      61  12  15 E13       29.98F
$$

COZ017>023-064>068-281100-
...SOUTHWEST COLORADO...

CITY           SKY/WX    TMP DP  RH WIND       PRES   REMARKS
DURANGO        FAIR      46  21  37 N6        30.06R
CORTEZ         FAIR      46  28  49 NE6       30.00R
PAGOSA SPRINGS FAIR      48  18  29 CALM      30.14S
TELLURIDE      FAIR      52  15  22 SE9       30.23S
WOLF CREEK PAS FAIR      45  10  24 SW12      30.47S
$$

COZ009-010-012-014-032>034-037-058>063-281100-
...CENTRAL COLORADO...

CITY           SKY/WX    TMP DP  RH WIND       PRES   REMARKS
ASPEN          FAIR      47  31  53 SW13      30.11F
BUENA VISTA    FAIR      54  23  30 NW7       30.13R
COPPER MTN     FAIR      48  23  37 W3        30.41F
BERTHOUD PASS  FAIR      39  28  65 W12G18    30.42F
COTTONWOOD PAS FAIR      61   9  12 W7        30.26R
GUNNISON       FAIR      42  33  70 W8        30.14R
KREMMLING      FAIR      54  37  54 CALM      30.11S
LEADVILLE      FAIR      42  25  50 NE6       30.26S
MONARCH PASS     N/A     48   9  20 W15       30.51S
SALIDA         FAIR      55  23  29 W5        30.17S
SUNLIGHT       FAIR      50  21  32 CALM      30.33F
WILKERSON PASS FAIR      52  19  28 N5        30.38S
$$

COZ069>075-281100-
...SAN LUIS VALLEY/SANGRE DE CRISTO MOUNTAINS...

CITY           SKY/WX    TMP DP  RH WIND       PRES   REMARKS
ALAMOSA        FAIR      43  33  68 SE5       30.10R
DEL NORTE      FAIR      55  18  24 W15G21    30.12F
LA VETA PASS   FAIR      50  32  50 N6        30.41R
SAGUACHE       FAIR      54  18  24 NW14      30.12R
$$

COZ035-036-038>040-281100-
...NORTHERN COLORADO FRONT RANGE...

CITY           SKY/WX    TMP DP  RH WIND       PRES   REMARKS
DENVER INTL AP FAIR      59  39  47 S6        29.97R
DMNS CITY PARK   N/A     62  41  46 E9        29.98S
AURORA         PTCLDY    55  41  58 S7        30.00R
FRONT RANGE AP FAIR      59  41  51 SW8       29.99R
ERIE MUNI ARPT FAIR      54  45  71 CALM      29.96S
BOULDER MUN AP FAIR      59  45  58 CALM      29.97R
CENTENNIAL     FAIR      57  42  57 S5        30.01R
BROOMFIELD     FAIR      59  41  51 SW6       29.99S
FORT COLLINS   FAIR      60  44  55 SE3       29.95S
LONGMONT       FAIR      58  45  62 S3        29.96F
$$

COZ041-046-047-076>085-087-088-281100-
...PIKES PEAK/PALMER DIVIDE AND SOUTHERN FOOTHILLS...

CITY           SKY/WX    TMP DP  RH WIND       PRES   REMARKS
COLO. SPRINGS  FAIR      64  38  38 N13       30.02R
A. F. ACADEMY  FAIR      53  36  53 N7        30.05R
SCHRIEVER AFB  FAIR      59  39  47 NW16G23   30.01R
CHEYENNE MTN   FAIR      64  32  30 NW15      30.00R
ELLICOTT       FAIR     N/A N/A N/A N10       29.98R
FALCON           N/A     57  37  47 N10       30.06R
FORT CARSON    FAIR      63  36  36 N13       29.98R
LIMON          FAIR      55  43  63 NW12      29.94S
MONUMENT HILL  FAIR      46  36  66 W3        30.09S
CANON CITY     CLEAR     66  37  34 E3        29.95R
WALSENBURG     FAIR      57  39  51 CALM      30.02R
TRINIDAD       FAIR      63  39  41 W10       29.98R
$$

COZ042>045-048>051-090-091-281100-
...NORTHEAST COLORADO...

CITY           SKY/WX    TMP DP  RH WIND       PRES   REMARKS
GREELEY ARPT   FAIR      56  46  69 CALM      29.94S
AKRON          FAIR      55  46  71 N6        29.90S
BURLINGTON     FAIR      59  52  77 N9        29.83S
WRAY           FAIR      57  52  82 W5        29.82S
YUMA           FAIR      54  45  71 W8        29.86S
STERLING       FAIR      54  50  87 CALM      29.87R
HOLYOKE        NOT AVBL
FORT MORGAN    FAIR      56  43  62 N10       29.91S
$$

COZ086-089-092>099-281100-
...SOUTHEAST COLORADO...

CITY           SKY/WX    TMP DP  RH WIND       PRES   REMARKS
PUEBLO         FAIR      67  38  34 NW9       29.91R
LA JUNTA       FAIR      65  47  52 NW6       29.83R
LAMAR          FAIR      65  49  56 CALM      29.72R
SPRINGFIELD      N/A     70  48  45 SW14      29.79R
$$




USA.gov is the U.S. government's official web portal to all federal, state and local government web resources and services.